This demonstration page uses our WeatherBlox Daily Observations layout. Learn more.

40.92945, -100.16068

Hourly Observations for June 1, 2018

Temp ( °F °C ) Dew Point ( °F °C ) Humidity (%) Winds ( mph kmh ) Pressure ( in mb ) Visibility ( mi km ) Precip ( " mm )
12:15 am 00:15 Clear 71 21.5 63 17 76 76 SSE 9 15 29.71 1006 10 16.0934 0 0
12:35 am 00:35 Clear 71 21.4 62 16.7 75 75 SSE 7 11 29.74 1007 10 16.0934 0 0
12:55 am 00:55 Clear 69 20.5 62 16.5 78 78 SSE 7 11 29.74 1007 10 16.0934 0 0
1:15 am 01:15 Clear 68 19.8 62 16.5 81 81 SSE 8 13 29.74 1007 10 16.0934 0 0
1:35 am 01:35 Clear 68 20 62 16.5 80 80 SSE 8 13 29.74 1007 10 16.0934 0 0
1:55 am 01:55 Clear 67 19.5 62 16.4 82 82 S 7 11 29.74 1007 10 16.0934 0 0
2:15 am 02:15 Clear 66 19 61 16.3 84 84 SSE 6 9 29.74 1007 10 16.0934 0 0
2:35 am 02:35 Clear 68 20 62 16.6 81 81 SSE 8 13 29.74 1007 10 16.0934 0 0
2:55 am 02:55 Clear 68 20.2 62 16.6 80 80 SE 8 13 29.74 1007 10 16.0934 0 0
3:15 am 03:15 Clear 69 20.5 62 16.7 79 79 SSE 8 13 29.74 1007 10 16.0934 0 0
3:35 am 03:35 Clear 67 19.5 62 16.6 83 83 SSE 8 13 29.74 1007 10 16.0934 0 0
3:55 am 03:55 Clear 67 19.2 62 16.5 84 84 SSE 7 11 29.74 1007 10 16.0934 0 0
4:15 am 04:15 Clear 67 19.5 63 17 86 86 SSE 10 17 29.74 1007 10 16.0934 0 0
4:35 am 04:35 Clear 68 20 62 16.9 82 82 SSE 10 17 29.74 1007 10 16.0934 0 0
4:55 am 04:55 Clear 69 20.6 63 17.2 81 81 SSE 10 17 29.74 1007 10 16.0934 0 0
5:15 am 05:15 Clear 67 19.7 63 17.2 86 86 SSE 8 13 29.74 1007 10 16.0934 0 0
5:35 am 05:35 Clear 67 19.7 63 17.3 86 86 SSE 9 15 29.74 1007 10 16.0934 0 0
5:55 am 05:55 Clear 68 19.8 64 17.5 87 87 SE 9 15 29.74 1007 10 16.0934 0 0
6:15 am 06:15 Sunny 68 20 64 17.6 86 86 SE 9 15 29.74 1007 10 16.0934 0 0
6:35 am 06:35 Sunny 68 20 64 17.6 86 86 SE 7 11 29.74 1007 10 16.0934 0 0
6:55 am 06:55 Sunny 68 20 64 17.9 88 88 SE 7 11 29.74 1007 10 16.0934 0 0
7:15 am 07:15 Sunny 69 20.6 65 18.4 87 87 SSE 8 13 29.77 1008 10 16.0934 0 0
7:35 am 07:35 Sunny 70 21.3 66 18.7 85 85 SSE 8 13 29.74 1007 10 16.0934 0 0
7:55 am 07:55 Sunny 72 22.4 66 19.1 82 82 SSE 10 17 29.71 1006 10 16.0934 0 0
8:15 am 08:15 Sunny 74 23.1 67 19.5 80 80 SSE 15 24 29.71 1006 10 16.0934 0 0
8:35 am 08:35 Sunny 75 23.9 67 19.7 77 77 SSE 16 26 29.71 1006 10 16.0934 0 0
8:55 am 08:55 Sunny 76 24.5 68 20 76 76 S 16 26 29.71 1006 10 16.0934 0 0
9:15 am 09:15 Sunny 78 25.5 69 20.5 74 74 SSE 14 22 29.68 1005 10 16.0934 0 0
9:35 am 09:35 Sunny 78 25.7 69 20.3 72 72 S 17 28 29.68 1005 10 16.0934 0 0
9:55 am 09:55 Sunny 79 26.3 68 20.2 69 69 SSE 21 33 29.68 1005 10 16.0934 0 0
10:15 am 10:15 Sunny 80 26.9 68 19.8 65 65 SSE 21 33 29.65 1004 10 16.0934 0 0
10:35 am 10:35 Sunny 81 27.4 69 20.5 66 66 SSE 17 28 29.65 1004 10 16.0934 0 0
10:55 am 10:55 Sunny 82 28 71 21.8 69 69 SSE 23 37 29.65 1004 10 16.0934 0 0
11:15 am 11:15 Sunny 83 28.2 72 22.3 70 70 SSE 24 39 29.59 1002 10 16.0934 0 0
11:35 am 11:35 Sunny 84 28.7 72 22 67 67 SSE 20 31 29.59 1002 10 16.0934 0 0
11:55 am 11:55 Sunny 85 29.4 72 22.2 65 65 SE 24 39 29.59 1002 10 16.0934 0 0
12:15 pm 12:15 Sunny 86 30 71 21.9 62 62 SSE 22 35 29.59 1002 10 16.0934 0 0
12:35 pm 12:35 Sunny 86 30.2 70 21.3 59 59 SSE 22 35 29.59 1002 10 16.0934 0 0
12:55 pm 12:55 Sunny 86 30.2 72 22.4 63 63 SSE 24 39 29.59 1002 10 16.0934 0 0
1:15 pm 13:15 Partly Cloudy 85 29.7 72 22.3 64 64 S 23 37 29.59 1002 10 16.0934 0 0
1:35 pm 13:35 Mostly Cloudy 85 29.7 73 22.9 67 67 SSE 20 31 29.59 1002 10 16.0934 0 0
1:55 pm 13:55 Mostly Cloudy 86 29.8 73 22.8 66 66 SSE 16 26 29.56 1001 10 16.0934 0 0
2:15 pm 14:15 Mostly Cloudy 87 30.5 73 23 64 64 SSE 21 33 29.56 1001 10 16.0934 0 0
2:35 pm 14:35 Mostly Cloudy 87 30.4 72 22.4 62 62 SSE 23 37 29.56 1001 10 16.0934 0 0
2:55 pm 14:55 Mostly Cloudy 87 30.8 72 22.4 61 61 SSE 23 37 29.56 1001 10 16.0934 0 0
3:15 pm 15:15 Mostly Cloudy 88 31 73 22.8 62 62 SSE 23 37 29.56 1001 10 16.0934 0 0
3:35 pm 15:35 Mostly Cloudy 89 31.4 73 22.5 59 59 SSE 31 50 29.5 999 10 16.0934 0 0
3:55 pm 15:55 Mostly Cloudy 89 31.5 73 22.9 60 60 SSE 26 43 29.5 999 10 16.0934 0 0
4:15 pm 16:15 Mostly Cloudy 89 31.5 72 22.4 58 58 SSE 24 39 29.5 999 10 16.0934 0 0
4:35 pm 16:35 Mostly Cloudy 89 31.8 73 22.8 59 59 SSE 24 39 29.5 999 10 16.0934 0 0
4:55 pm 16:55 Partly Cloudy 89 31.4 72 22.4 59 59 SSE 22 35 29.5 999 10 16.0934 0 0
5:15 pm 17:15 Partly Cloudy 90 32.1 73 22.5 57 57 SSE 20 31 29.5 999 10 16.0934 0 0
5:35 pm 17:35 Partly Cloudy 89 31.8 72 22.1 56 56 S 20 31 29.5 999 10 16.0934 0 0
5:55 pm 17:55 Partly Cloudy 90 32.1 73 22.5 57 57 S 21 33 29.5 999 10 16.0934 0 0
6:15 pm 18:15 Partly Cloudy 90 32 72 22.3 56 56 S 17 28 29.5 999 10 16.0934 0 0
6:35 pm 18:35 Partly Cloudy 90 32 72 22.1 56 56 S 17 28 29.5 999 10 16.0934 0 0
6:55 pm 18:55 Sunny 90 32 71 21.8 55 55 S 14 22 29.5 999 10 16.0934 0 0
7:15 pm 19:15 Sunny 89 31.6 71 21.6 55 55 S 15 24 29.47 998 10 16.0934 0 0
7:35 pm 19:35 Sunny 88 31 71 21.4 57 57 S 14 22 29.53 1000 10 16.0934 0 0
7:55 pm 19:55 Sunny 88 31.1 71 21.7 57 57 S 12 19 29.53 1000 10 16.0934 0 0
8:15 pm 20:15 Sunny 87 30.3 71 21.6 60 60 S 14 22 29.53 1000 10 16.0934 0 0
8:35 pm 20:35 Sunny 86 30.1 71 21.6 60 60 S 12 19 29.5 999 10 16.0934 0 0
8:55 pm 20:55 Sunny 85 29.4 71 21.6 63 63 S 9 15 29.5 999 10 16.0934 0 0
9:15 pm 21:15 Clear 84 28.7 71 21.8 66 66 WNW 9 15 29.53 1000 10 16.0934 0 0
9:35 pm 21:35 Partly Cloudy 86 30 71 21.6 61 61 W 10 17 29.53 1000 10 16.0934 0 0
9:55 pm 21:55 Mostly Cloudy 84 29 64 18 51 51 NW 10 17 29.53 1000 10 16.0934 0 0
10:15 pm 22:15 Cloudy 84 28.9 63 17.4 50 50 S 13 20 29.53 1000 10 16.0934 0 0
10:35 pm 22:35 Cloudy 74 23.4 63 17.1 68 68 SE 22 35 29.65 1004 1.75 2.816345 0.36 9.144
10:55 pm 22:55 Cloudy with Heavy Thunderstorms 69 20.5 62 16.7 79 79 NE 5 7 29.59 1002 1.75 2.816345 0.68 17.272
11:15 pm 23:15 Mostly Cloudy with Light Thunderstorms 73 22.7 62 16.9 70 70 N 15 24 29.62 1003 10 16.0934 0.04 1.016
11:35 pm 23:35 Windy with Storms Likely 67 19.3 61 16 81 81 S 26 43 29.74 1007 10 16.0934 0.06 1.524
11:55 pm 23:55 Partly Cloudy with Nearby Thunderstorms 75 24 60 15.7 60 60 NW 23 37 29.65 1004 10 16.0934 0.06 1.524

Powered by AerisWeather